Regional Weather Roundup
Issued by NWS Boston, MA

Current Version | Previous Version | Text Only | Print | Product List | Glossary Off
Versions: 1 2 3 4 5 6 7 8 9 10 11 12 13 14 15 16 17 18 19 20 21 22 23 24 25 26 27 28

000
ASUS41 KBOX 180310
RWRBOX

REGIONAL WEATHER ROUNDUP
NATIONAL WEATHER SERVICE TAUNTON MA
1100 PM EDT THU AUG 17 2017

NOTE:  "FAIR" INDICATES FEW OR NO CLOUDS BELOW 12,000 FEET WITH NO
SIGNIFICANT WEATHER AND/OR OBSTRUCTIONS TO VISIBILITY.

MAZALL-180400-
EASTERN MASSACHUSETTS

CITY           SKY/WX    TMP DP  RH WIND       PRES   REMARKS
BOSTON         CLOUDY    71  56  58 S8        30.00R
BEVERLY        PTCLDY    66  58  75 CALM      29.99S
LAWRENCE       CLOUDY    67  55  65 CALM      30.01S
BEDFORD        MOCLDY    66  54  65 SE5       29.99R
BLUE HILL        N/A     66  54  65 S10       30.01S
NORWOOD        CLOUDY    60  56  86 CALM      30.00S
MARSHFIELD     PTCLDY    66  55  68 W6        30.00S
PLYMOUTH       PTCLDY    64  57  78 SW3       30.02S
TAUNTON        PTCLDY    57  54  89 CALM      30.01R
NEW BEDFORD    PTCLDY    59  57  93 CALM      30.01S
$$

MAZALL-180400-
CAPE COD AND THE ISLANDS

CITY           SKY/WX    TMP DP  RH WIND       PRES   REMARKS
FALMOUTH       PTCLDY    63  61  94 S5        30.03S
HYANNIS        PTCLDY    68  61  78 S6        30.01S
CHATHAM        PTCLDY    68  60  75 S5        30.03S
PROVINCETOWN   PTCLDY    67  62  84 SW7       30.02R
NANTUCKET      PTCLDY    62  60  93 S7        30.03F
MARTHAS VNYRD  CLEAR     62  59  90 S5        30.02S
$$

MAZALL-180400-
CENTRAL AND WESTERN MASSACHUSETTS

CITY           SKY/WX    TMP DP  RH WIND       PRES   REMARKS
WORCESTER      CLOUDY    64  55  72 SW7       30.03S
FITCHBURG      MOCLDY    66  58  75 CALM      30.01S
ORANGE         PTCLDY    62  60  93 CALM      30.01S
SPRINGFIELD    CLOUDY    68  58  71 S5        29.99R
WESTFIELD      CLOUDY    67  61  81 S5        29.99S
NORTH ADAMS    CLOUDY    62  58  86 CALM      30.00S
PITTSFIELD     MOCLDY    63  59  87 CALM      30.01R
$$

RIZALL-180400-
RHODE ISLAND

CITY           SKY/WX    TMP DP  RH WIND       PRES   REMARKS
PROVIDENCE     CLOUDY    65  58  78 SW3       30.02S
NEWPORT        PTCLDY    67  63  87 S3        30.02S
BLOCK ISLAND   CLEAR     68  62  81 S6        30.03R
WESTERLY       CLEAR     64  61  90 CALM      30.03R
$$

CTZALL-180400-
CONNECTICUT

CITY           SKY/WX    TMP DP  RH WIND       PRES   REMARKS
BRADLEY INTL   MOCLDY    70  58  65 S7        30.00R
HARTFORD       CLEAR     69  59  70 S5        30.00R
BRIDGEPORT     MOCLDY    72  65  78 SE3       30.00S
DANBURY        CLEAR     69  62  78 CALM      30.02R
GROTON         CLEAR     65  61  87 CALM      30.01R
NEW HAVEN      PTCLDY    70  64  81 S5        30.01R
CHESTER        NOT AVBL
MERIDEN        CLEAR     64  60  87 CALM      30.01R
WILLIMANTIC    CLEAR     65  60  84 CALM      30.02R
OXFORD         CLEAR     66  61  84 S6        30.03R
$$

MEZ002-015-021-024-NHZ003-005-008-011-012-014-VTZ005-008-180400-
NORTHERN NEW ENGLAND

CITY           SKY/WX    TMP DP  RH WIND       PRES   REMARKS
PORTLAND ME    PTCLDY    65  54  67 CALM      29.99S
BANGOR ME      PTCLDY    60  49  66 CALM      29.99R
CONCORD NH     PTCLDY    60  57  89 CALM      30.01R
MANCHESTER NH  MOCLDY    68  55  63 CALM      29.99R
NASHUA NH      PTCLDY    63  58  83 CALM      30.00S
PORTSMOUTH NH  MOCLDY    65  56  74 CALM      29.98S
JAFFREY NH     PTCLDY    59  58  96 CALM      30.03S
KEENE NH         N/A    N/A N/A N/A MISG        N/A
BURLINGTON VT  CLOUDY    67  58  72 E5        29.96F
MT. WASHINGTON MOCLDY    48  30  49 W14         N/A
$$

NYZ052-076-180400-
EASTERN NEW YORK

CITY           SKY/WX    TMP DP  RH WIND       PRES   REMARKS
ALBANY         CLOUDY    70  55  59 CALM      29.96S
NEW YORK CITY  CLOUDY    75  72  90 S8        29.98R
$$

ANZALL-180400-
MARINE OBSERVATIONS

STATION/POSITION TIME  TEMP    WIND        PRES    VSBY  WAVE
                       AIR SEA DIR/SP/G                  HT/PER
                 (UTC) (F)     (DEG/KT/KT) (MB)    (MI)  (FT/S)
BOSTON BUOY      0250   68 68  210/ 10/ 10 1015.2S         1/11
BUZZARDS BAY     0200   68     200/  9/ 10 1016.9S
NANTUCKET SOUND  0250   69 71  200/ 10/ 12 1016.5F         1
MASS BAY-STELLWA 0204   70 67  210/ 10/ 12 1014.6R         1/ 3
ISLE OF SHOALS   0200   70     230/  8/  8 1015.2S
S OF BLOCK IS    NOT AVBL
$$

......................KEY.........................
  SKY/WX - SKY CONDITION/PRESENT WEATHER
  TMP    - TEMPERATURE IN FAHRENHEIT
  DWPT   - DEWPOINT IN FAHRENHEIT
  RH     - RELATIVE HUMIDITY IN PERCENT
  WIND   - DIRECTION AND SPEED IN MPH
  PRES   - MEAN SEA LEVEL PRESSURE IN INCHES OF HG
  WCI    - WIND CHILL INDEX
  VSB    - VISIBILITY IN MILES
  HX     - HEAT INDEX
  TC     - TEMPERATURE IN CELSIUS
  VRB    - VARIABLE WIND DIRECTION
  N/A    - NOT AVAILABLE




USA.gov is the U.S. government's official web portal to all federal, state and local government web resources and services.